QPF
0.00 0.00 0.00 0.00 0.00 0.00 0.00 0.00 0.00 0.00 0.00 0.00 0.00 0.00 0.00 0.00 0.00 0.00 0.00 0.00 0.00 0.02 0.01 0.00 0.00 0.00 0.00 0.00 0.03 0.00 0.01 0.00 0.00 0.00 0.00 0.00 0.00 0.00 0.00 0.00 0.00 0.00 0.00 0.00 0.00 0.00 0.00 0.00 0.00
0.00 0.00 0.00 0.00 0.00 0.00 0.00 0.00 0.00 0.00 0.00 0.00 0.00 0.00 0.00 0.00 0.00 0.00 0.00 0.00 0.04 0.05 0.02 0.01 0.00 0.00 0.01 0.02 0.05 0.30 0.22 0.11 0.01 0.00 0.00 0.00 0.00 0.00 0.00 0.00 0.00 0.00 0.00 0.00 0.00 0.00 0.00 0.00 0.00
0.00 0.00 0.00 0.00 0.00 0.00 0.00 0.00 0.00 0.00 0.00 0.00 0.00 0.00 0.00 0.00 0.00 0.00 0.00 0.00 0.02 0.08 0.07 0.11 0.11 0.01 0.00 0.01 0.02 0.25 0.63 0.68 0.14 0.00 0.00 0.00 0.00 0.00 0.00 0.00 0.00 0.00 0.00 0.00 0.01 0.00 0.00 0.00 0.00
0.00 0.00 0.00 0.00 0.00 0.00 0.00 0.00 0.00 0.00 0.00 0.00 0.00 0.00 0.00 0.00 0.00 0.00 0.00 0.00 0.00 0.05 0.04 0.13 0.08 0.00 0.00 0.00 0.00 0.10 0.55 1.24 0.41 0.04 0.00 0.00 0.00 0.00 0.00 0.00 0.00 0.00 0.01 0.01 0.01 0.00 0.00 0.00 0.00
0.00 0.00 0.00 0.00 0.00 0.00 0.00 0.00 0.00 0.00 0.00 0.00 0.00 0.00 0.00 0.00 0.00 0.00 0.00 0.00 0.00 0.01 0.20 0.31 0.19 0.04 0.01 0.00 0.00 0.03 0.18 0.75 0.40 0.13 0.01 0.00 0.00 0.00 0.00 0.00 0.00 0.00 0.00 0.00 0.00 0.00 0.00 0.00 0.00
0.00 0.00 0.00 0.00 0.00 0.00 0.00 0.00 0.00 0.00 0.00 0.00 0.00 0.00 0.00 0.00 0.00 0.00 0.00 0.00 0.00 0.00 0.04 0.10 0.16 0.03 0.00 0.00 0.00 0.00 0.03 0.13 0.18 0.15 0.05 0.01 0.00 0.00 0.00 0.00 0.00 0.00 0.00 0.00 0.00 0.00 0.00 0.00 0.00
0.00 0.00 0.00 0.00 0.00 0.00 0.00 0.00 0.00 0.00 0.00 0.00 0.00 0.00 0.00 0.00 0.00 0.00 0.00 0.00 0.00 0.00 0.00 0.01 0.12 0.13 0.05 0.00 0.02 0.01 0.05 0.14 0.25 0.18 0.09 0.01 0.00 0.00 0.00 0.00 0.00 0.00 0.00 0.00 0.00 0.00 0.00 0.00 0.00
0.00 0.00 0.00 0.00 0.00 0.00 0.00 0.00 0.00 0.00 0.00 0.00 0.00 0.00 0.00 0.00 0.00 0.00 0.00 0.00 0.00 0.00 0.00 0.01 0.04 0.16 0.09 0.03 0.04 0.07 0.05 0.05 0.33 0.41 0.16 0.03 0.00 0.00 0.00 0.00 0.00 0.00 0.00 0.00 0.00 0.00 0.00 0.00 0.00
0.00 0.00 0.00 0.00 0.00 0.00 0.00 0.00 0.00 0.00 0.00 0.00 0.00 0.00 0.00 0.00 0.00 0.00 0.00 0.00 0.00 0.00 0.00 0.00 0.02 0.04 0.06 0.06 0.06 0.02 0.13 0.16 0.37 0.65 0.25 0.03 0.00 0.00 0.00 0.00 0.00 0.00 0.00 0.00 0.00 0.00 0.00 0.00 0.00
0.00 0.00 0.00 0.00 0.00 0.00 0.00 0.00 0.00 0.00 0.00 0.00 0.00 0.00 0.00 0.00 0.00 0.00 0.00 0.00 0.00 0.00 0.00 0.02 0.01 0.06 0.09 0.05 0.03 0.02 0.04 0.19 0.38 0.96 0.33 0.04 0.00 0.00 0.00 0.00 0.00 0.00 0.00 0.00 0.00 0.00 0.00 0.00 0.00
0.00 0.00 0.00 0.00 0.00 0.00 0.00 0.00 0.00 0.00 0.00 0.00 0.00 0.00 0.00 0.00 0.00 0.00 0.00 0.00 0.00 0.00 0.00 0.01 0.01 0.02 0.04 0.01 0.01 0.01 0.01 0.17 0.44 0.50 0.16 0.02 0.00 0.00 0.00 0.00 0.00 0.00 0.00 0.00 0.00 0.00 0.00 0.00 0.00
0.00 0.00 0.00 0.00 0.00 0.00 0.00 0.00 0.00 0.00 0.00 0.00 0.00 0.00 0.00 0.00 0.00 0.00 0.00 0.00 0.00 0.00 0.01 0.01 0.00 0.01 0.08 0.05 0.01 0.01 0.05 0.15 0.27 0.16 0.02 0.00 0.00 0.00 0.00 0.00 0.00 0.00 0.00 0.00 0.00 0.00 0.00 0.00 0.00
0.00 0.00 0.00 0.00 0.00 0.00 0.00 0.00 0.00 0.00 0.00 0.00 0.00 0.00 0.00 0.00 0.00 0.00 0.00 0.00 0.00 0.00 0.01 0.01 0.00 0.00 0.01 0.01 0.00 0.06 0.26 0.17 0.14 0.07 0.01 0.00 0.00 0.00 0.00 0.00 0.00 0.00 0.00 0.00 0.00 0.00 0.00 0.00 0.00
0.00 0.00 0.00 0.00 0.00 0.00 0.00 0.00 0.00 0.00 0.00 0.00 0.00 0.00 0.00 0.00 0.00 0.00 0.00 0.00 0.00 0.00 0.00 0.01 0.01 0.00 0.00 0.00 0.04 0.17 0.29 0.15 0.10 0.04 0.00 0.00 0.00 0.00 0.00 0.00 0.00 0.00 0.00 0.00 0.00 0.00 0.00 0.00 0.00
0.00 0.00 0.00 0.00 0.00 0.00 0.00 0.00 0.00 0.00 0.00 0.00 0.00 0.00 0.00 0.00 0.00 0.00 0.00 0.00 0.00 0.00 0.00 0.00 0.00 0.00 0.00 0.00 0.05 0.13 0.19 0.12 0.07 0.01 0.00 0.00 0.00 0.00 0.00 0.00 0.00 0.00 0.00 0.00 0.00 0.00 0.00 0.00 0.00
0.00 0.00 0.00 0.00 0.00 0.00 0.00 0.00 0.00 0.00 0.00 0.00 0.00 0.00 0.00 0.00 0.00 0.00 0.00 0.00 0.00 0.00 0.00 0.00 0.00 0.00 0.00 0.00 0.04 0.10 0.10 0.08 0.04 0.00 0.00 0.00 0.00 0.00 0.00 0.00 0.00 0.00 0.00 0.00 0.00 0.00 0.00 0.00 0.00
0.00 0.00 0.00 0.00 0.00 0.00 0.00 0.00 0.00 0.00 0.00 0.00 0.00 0.00 0.00 0.00 0.00 0.00 0.00 0.00 0.00 0.00 0.00 0.00 0.00 0.00 0.00 0.00 0.01 0.04 0.12 0.07 0.03 0.01 0.00 0.00 0.00 0.00 0.00 0.00 0.00 0.00 0.00 0.00 0.00 0.00 0.00 0.00 0.00
0.00 0.00 0.00 0.00 0.00 0.00 0.00 0.00 0.00 0.00 0.00 0.00 0.00 0.00 0.00 0.00 0.00 0.00 0.00 0.00 0.00 0.00 0.00 0.00 0.03 0.04 0.02 0.01 0.03 0.10 0.18 0.13 0.04 0.01 0.00 0.00 0.00 0.00 0.00 0.00 0.00 0.00 0.00 0.00 0.00 0.00 0.00 0.00 0.00
0.00 0.00 0.00 0.00 0.00 0.00 0.00 0.00 0.00 0.00 0.00 0.00 0.00 0.00 0.00 0.00 0.00 0.00 0.00 0.00 0.00 0.01 0.00 0.01 0.04 0.05 0.02 0.04 0.07 0.12 0.16 0.11 0.07 0.01 0.00 0.00 0.00 0.00 0.00 0.00 0.00 0.00 0.00 0.00 0.01 0.00 0.00 0.00 0.00
0.00 0.00 0.00 0.00 0.00 0.00 0.00 0.00 0.00 0.00 0.00 0.00 0.00 0.00 0.00 0.00 0.00 0.00 0.00 0.00 0.00 0.01 0.00 0.00 0.01 0.01 0.04 0.04 0.06 0.05 0.11 0.12 0.05 0.03 0.01 0.01 0.01 0.00 0.00 0.00 0.00 0.00 0.00 0.00 0.00 0.00 0.00 0.00 0.00
0.00 0.00 0.00 0.00 0.00 0.00 0.00 0.00 0.00 0.00 0.00 0.00 0.00 0.00 0.00 0.00 0.00 0.00 0.00 0.00 0.00 0.00 0.00 0.00 0.00 0.00 0.02 0.06 0.09 0.09 0.12 0.08 0.05 0.04 0.01 0.00 0.00 0.00 0.00 0.00 0.00 0.00 0.00 0.00 0.00 0.00 0.00 0.00 0.00
0.00 0.00 0.00 0.00 0.00 0.00 0.00 0.00 0.00 0.00 0.00 0.00 0.00 0.00 0.00 0.00 0.00 0.00 0.00 0.00 0.00 0.00 0.00 0.00 0.00 0.00 0.00 0.02 0.04 0.04 0.02 0.01 0.01 0.00 0.00 0.00 0.00 0.00 0.00 0.00 0.00 0.00 0.00 0.00 0.00 0.00 0.00 0.00 0.00
0.00 0.00 0.00 0.00 0.00 0.00 0.00 0.00 0.00 0.00 0.00 0.00 0.00 0.00 0.00 0.00 0.00 0.00 0.00 0.00 0.00 0.00 0.00 0.00 0.00 0.00 0.00 0.00 0.00 0.00 0.00 0.00 0.00 0.00 0.00 0.00 0.00 0.00 0.00 0.00 0.00 0.00 0.00 0.00 0.00 0.00 0.00 0.00 0.00
0.00 0.00 0.00 0.00 0.00 0.00 0.00 0.00 0.00 0.00 0.00 0.00 0.00 0.00 0.00 0.00 0.00 0.00 0.00 0.00 0.00 0.00 0.00 0.00 0.00 0.00 0.00 0.00 0.00 0.00 0.00 0.00 0.00 0.00 0.00 0.00 0.00 0.00 0.00 0.00 0.00 0.00 0.00 0.00 0.00 0.00 0.00 0.00 0.00
0.00 0.00 0.00 0.00 0.00 0.00 0.00 0.00 0.00 0.00 0.00 0.00 0.00 0.00 0.00 0.00 0.00 0.00 0.00 0.00 0.00 0.00 0.00 0.00 0.00 0.00 0.00 0.00 0.00 0.00 0.00 0.00 0.00 0.00 0.00 0.00 0.00 0.00 0.00 0.00 0.00 0.00 0.00 0.00 0.00 0.00 0.00 0.01 0.01
0.00 0.00 0.00 0.00 0.00 0.00 0.00 0.00 0.00 0.00 0.00 0.00 0.00 0.00 0.00 0.00 0.00 0.00 0.00 0.00 0.00 0.00 0.00 0.00 0.00 0.00 0.00 0.00 0.00 0.00 0.00 0.00 0.00 0.00 0.00 0.00 0.00 0.00 0.00 0.00 0.00 0.00 0.00 0.00 0.00 0.00 0.00 0.00 0.01
0.00 0.00 0.00 0.00 0.00 0.00 0.00 0.00 0.00 0.00 0.00 0.00 0.00 0.00 0.00 0.00 0.00 0.00 0.00 0.00 0.00 0.00 0.00 0.00 0.00 0.00 0.00 0.00 0.00 0.00 0.00 0.00 0.00 0.00 0.00 0.00 0.00 0.00 0.00 0.00 0.00 0.00 0.00 0.00 0.00 0.00 0.00 0.00 0.01
0.00 0.00 0.00 0.00 0.00 0.00 0.00 0.00 0.00 0.00 0.00 0.00 0.00 0.00 0.00 0.00 0.00 0.00 0.00 0.00 0.00 0.00 0.00 0.00 0.00 0.00 0.00 0.00 0.00 0.00 0.00 0.00 0.00 0.00 0.00 0.00 0.00 0.00 0.00 0.00 0.00 0.00 0.00 0.00 0.00 0.00 0.00 0.00 0.01
0.00 0.00 0.00 0.00 0.00 0.00 0.00 0.00 0.00 0.00 0.00 0.00 0.00 0.00 0.00 0.00 0.00 0.00 0.00 0.00 0.00 0.00 0.00 0.00 0.01 0.00 0.01 0.00 0.00 0.00 0.00 0.00 0.00 0.00 0.00 0.00 0.00 0.00 0.00 0.00 0.00 0.00 0.01 0.03 0.04 0.06 0.07 0.07 0.06
0.00 0.00 0.00 0.00 0.00 0.00 0.00 0.00 0.00 0.00 0.00 0.00 0.00 0.00 0.00 0.00 0.00 0.00 0.00 0.00 0.00 0.00 0.00 0.00 0.01 0.02 0.01 0.03 0.03 0.00 0.00 0.00 0.00 0.00 0.00 0.00 0.00 0.00 0.00 0.00 0.00 0.01 0.03 0.04 0.04 0.05 0.05 0.07 0.11
MSLP
1013.23 1013.41 1013.32 1013.25 1013.74 1013.53 1012.83 1012.71 1012.57 1011.94 1011.71 1011.38 1011.48 1011.74 1011.69 1011.69 1011.49 1012.14 1012.48 1012.51 1012.40 1011.97 1011.84 1012.15 1012.49 1012.64 1012.66 1012.74 1012.72 1013.01 1013.57 1013.60 1013.82 1014.29 1014.54 1015.06 1015.14 1016.02 1016.56 1016.72 1017.46 1018.22 1018.45 1019.06 1019.41 1019.85 1020.40 1020.64 1021.07
1013.30 1013.27 1013.26 1013.51 1013.33 1012.79 1012.61 1012.40 1011.90 1011.29 1011.06 1011.27 1011.50 1011.64 1011.74 1011.36 1011.84 1012.01 1012.47 1012.71 1012.67 1012.35 1012.04 1012.13 1012.52 1012.49 1012.61 1012.69 1012.60 1012.88 1013.42 1014.03 1014.38 1013.93 1014.51 1014.91 1015.53 1016.29 1017.18 1016.78 1017.70 1018.33 1018.87 1019.39 1019.81 1020.35 1020.65 1021.04 1021.42
1013.09 1013.22 1013.19 1013.60 1013.52 1012.46 1012.03 1011.74 1011.11 1010.96 1010.86 1011.04 1011.35 1011.61 1011.58 1011.33 1011.64 1011.93 1012.51 1012.83 1012.64 1012.69 1012.33 1012.16 1012.29 1012.48 1012.48 1012.25 1012.26 1012.50 1013.65 1013.78 1014.64 1014.69 1014.79 1015.06 1015.83 1016.47 1017.41 1017.02 1018.13 1018.42 1019.28 1019.71 1020.33 1020.90 1021.10 1021.56 1021.93
1013.14 1013.43 1014.24 1013.72 1012.92 1012.42 1011.88 1011.18 1011.17 1010.89 1010.82 1011.07 1011.27 1011.48 1011.71 1011.57 1011.75 1012.32 1012.74 1012.75 1012.70 1012.82 1012.70 1012.53 1012.46 1012.48 1012.70 1012.71 1012.26 1013.65 1013.79 1014.89 1015.15 1014.97 1015.14 1015.46 1016.22 1016.52 1017.39 1017.47 1018.20 1018.63 1019.51 1020.06 1020.90 1021.28 1021.66 1021.96 1022.36
1013.47 1013.56 1013.40 1013.40 1012.85 1012.16 1011.72 1011.22 1011.04 1010.80 1010.73 1010.63 1011.11 1011.19 1011.53 1011.75 1012.33 1012.69 1012.83 1012.85 1012.77 1012.94 1012.97 1012.88 1012.70 1012.50 1012.72 1012.86 1013.22 1014.01 1013.49 1012.98 1014.20 1014.93 1015.47 1015.66 1016.26 1016.56 1017.28 1017.86 1018.17 1018.76 1019.50 1020.43 1021.35 1021.87 1022.10 1022.19 1022.72
1013.29 1013.67 1013.20 1012.74 1012.56 1011.95 1011.32 1010.80 1010.68 1010.54 1010.51 1010.99 1011.11 1011.18 1011.24 1011.93 1012.32 1012.69 1013.04 1013.08 1013.09 1013.09 1012.99 1013.17 1013.11 1012.76 1012.95 1012.94 1013.24 1013.40 1014.25 1014.52 1014.34 1014.98 1015.75 1016.20 1016.47 1016.80 1017.05 1018.20 1018.69 1019.25 1019.94 1020.94 1021.66 1022.18 1022.63 1022.68 1022.99
1012.76 1013.13 1012.87 1012.50 1012.06 1011.76 1011.00 1010.57 1010.34 1010.19 1010.23 1010.28 1010.64 1010.99 1010.99 1011.73 1012.44 1012.89 1013.25 1013.35 1013.41 1013.12 1012.99 1013.17 1013.29 1012.88 1012.97 1013.18 1013.16 1013.65 1014.10 1014.64 1015.19 1015.25 1015.61 1016.14 1016.82 1017.12 1017.48 1018.17 1019.17 1019.83 1020.44 1021.33 1022.01 1022.41 1022.84 1023.23 1023.47
1012.74 1012.73 1012.84 1012.51 1011.68 1011.20 1010.74 1010.53 1010.29 1010.28 1010.07 1010.62 1010.74 1010.59 1010.98 1011.77 1012.40 1012.94 1013.20 1013.33 1013.49 1013.34 1012.93 1013.07 1013.18 1013.46 1013.36 1013.29 1013.34 1013.47 1013.76 1014.31 1014.44 1015.07 1015.76 1016.30 1016.62 1017.49 1017.91 1018.34 1019.44 1020.29 1020.70 1021.61 1022.23 1022.83 1023.08 1023.63 1024.05
1012.77 1012.55 1012.05 1011.97 1011.55 1010.56 1010.55 1010.40 1010.25 1010.35 1010.39 1010.65 1010.62 1010.71 1011.23 1012.11 1012.68 1012.99 1013.23 1013.34 1013.51 1013.52 1013.28 1013.13 1013.29 1013.77 1013.91 1013.80 1013.65 1013.69 1013.71 1014.03 1014.56 1015.17 1015.65 1016.55 1016.91 1017.64 1018.30 1018.79 1019.82 1020.32 1021.04 1021.93 1022.61 1023.02 1023.46 1023.72 1024.52
1012.23 1012.00 1011.30 1011.07 1010.74 1010.22 1010.26 1010.39 1010.16 1010.32 1010.29 1010.19 1010.57 1010.94 1011.37 1011.98 1012.66 1012.92 1013.06 1013.18 1013.38 1013.55 1013.56 1013.42 1013.44 1013.50 1013.88 1013.88 1013.78 1013.58 1013.74 1014.09 1014.67 1014.99 1014.99 1016.44 1017.00 1017.76 1018.85 1019.38 1020.15 1020.66 1021.37 1022.18 1022.91 1023.44 1023.71 1023.91 1024.31
1011.98 1011.16 1010.81 1010.30 1010.28 1010.04 1009.93 1010.07 1010.01 1010.06 1009.59 1009.05 1009.56 1009.96 1010.95 1011.59 1012.26 1012.54 1012.65 1013.00 1013.29 1013.50 1013.69 1013.65 1013.61 1013.60 1013.68 1013.78 1013.74 1013.52 1013.68 1014.04 1014.62 1014.78 1015.41 1016.73 1017.76 1018.27 1019.13 1019.71 1019.84 1021.14 1021.84 1022.60 1023.19 1023.90 1023.83 1023.87 1024.05
1011.51 1010.75 1010.39 1009.73 1009.83 1009.95 1009.86 1009.59 1009.60 1009.70 1008.68 1008.84 1009.26 1009.78 1010.50 1011.21 1011.83 1012.25 1012.30 1012.83 1013.26 1013.55 1013.69 1013.80 1013.81 1013.88 1013.86 1013.95 1013.95 1013.75 1013.57 1014.03 1014.50 1015.27 1016.11 1017.07 1017.76 1018.71 1019.21 1020.07 1020.33 1021.22 1021.92 1022.47 1023.13 1023.53 1024.14 1024.35 1024.39
1010.84 1010.28 1009.88 1009.53 1009.70 1009.60 1009.70 1009.31 1009.23 1008.64 1008.17 1008.97 1009.46 1009.91 1010.24 1010.77 1011.42 1011.93 1012.16 1012.68 1013.19 1013.48 1013.64 1013.78 1013.93 1014.08 1014.01 1014.03 1014.06 1014.01 1013.79 1014.09 1014.97 1015.77 1016.41 1016.88 1017.91 1019.10 1019.60 1020.21 1020.52 1021.38 1022.11 1022.88 1023.29 1023.68 1024.45 1024.68 1024.63
1009.89 1009.84 1009.49 1009.16 1009.07 1009.18 1009.17 1009.08 1009.30 1007.18 1008.09 1008.93 1009.58 1009.91 1010.02 1010.40 1010.93 1011.61 1012.08 1012.66 1013.12 1013.36 1013.64 1013.82 1013.96 1014.03 1014.02 1014.11 1014.20 1014.31 1014.20 1014.05 1015.42 1016.20 1016.43 1017.42 1018.32 1019.25 1019.72 1020.35 1020.56 1021.77 1022.33 1022.88 1023.29 1023.84 1024.20 1024.45 1024.63
1009.74 1009.64 1009.15 1008.62 1008.21 1008.26 1008.37 1008.81 1008.28 1007.35 1008.28 1008.81 1009.49 1009.72 1009.96 1010.17 1010.76 1011.05 1011.69 1012.43 1012.86 1013.16 1013.52 1013.86 1013.98 1014.01 1014.22 1014.45 1014.42 1014.50 1014.87 1015.32 1016.13 1016.75 1017.22 1017.89 1018.54 1019.08 1019.77 1020.19 1021.24 1022.09 1022.82 1022.98 1023.60 1024.10 1024.38 1024.56 1024.83
1009.85 1009.71 1008.95 1008.13 1007.93 1007.70 1007.93 1007.18 1006.83 1007.57 1008.09 1008.60 1009.10 1009.46 1009.75 1010.08 1010.40 1010.92 1011.46 1012.24 1012.68 1012.95 1013.31 1013.78 1014.03 1014.10 1014.39 1014.62 1014.75 1014.98 1015.49 1016.22 1016.86 1017.21 1017.61 1018.25 1018.88 1018.89 1019.81 1020.32 1021.36 1022.56 1022.75 1022.94 1023.57 1024.02 1024.35 1024.68 1024.99
1009.87 1009.05 1008.69 1008.05 1007.56 1007.61 1007.65 1006.85 1006.53 1007.46 1007.73 1008.23 1008.89 1009.07 1009.48 1009.89 1010.20 1010.68 1011.42 1012.01 1012.55 1012.80 1013.14 1013.67 1014.04 1014.28 1014.52 1014.58 1015.04 1015.51 1015.99 1016.65 1017.23 1017.46 1018.02 1018.67 1018.85 1019.29 1019.81 1020.60 1021.70 1022.23 1022.51 1023.19 1023.59 1024.12 1024.51 1024.90 1025.15
1008.78 1009.05 1008.60 1007.87 1007.71 1007.53 1007.36 1006.74 1006.16 1006.94 1007.35 1007.54 1008.07 1008.70 1009.13 1009.46 1009.59 1010.25 1011.13 1011.81 1012.29 1012.61 1013.01 1013.45 1013.92 1014.34 1014.57 1014.90 1015.50 1015.82 1016.34 1016.81 1017.23 1017.52 1018.19 1018.84 1019.10 1019.78 1020.23 1021.07 1021.79 1022.07 1022.84 1023.44 1023.71 1024.05 1024.85 1025.00 1024.91
1008.73 1008.54 1008.10 1007.45 1007.60 1007.36 1006.69 1006.51 1005.87 1005.99 1006.73 1007.11 1007.53 1007.88 1008.36 1008.69 1009.28 1009.99 1010.83 1011.63 1012.17 1012.49 1012.76 1013.21 1013.66 1014.14 1014.58 1015.05 1015.45 1015.76 1016.40 1017.10 1017.51 1017.80 1018.39 1018.81 1019.31 1019.95 1020.30 1020.83 1020.55 1022.22 1022.81 1023.08 1023.50 1024.22 1024.49 1024.94 1025.10
1008.85 1008.48 1007.54 1007.60 1007.48 1007.37 1006.29 1005.71 1005.28 1005.28 1005.34 1005.75 1006.36 1006.79 1007.27 1007.99 1008.94 1009.65 1010.52 1011.33 1011.81 1012.25 1012.55 1012.89 1013.33 1013.86 1014.35 1014.94 1015.37 1015.84 1016.47 1017.00 1017.31 1017.91 1018.52 1018.95 1019.02 1019.44 1019.94 1020.19 1020.97 1021.64 1022.45 1022.94 1023.36 1023.80 1024.16 1024.30 1024.51
1008.46 1008.26 1007.42 1007.85 1007.66 1007.10 1006.45 1005.40 1004.73 1004.44 1004.76 1005.02 1005.54 1005.75 1006.44 1006.81 1007.81 1008.89 1009.93 1010.77 1011.35 1011.89 1012.15 1012.50 1013.04 1013.54 1014.06 1014.69 1015.32 1016.09 1016.67 1017.18 1017.78 1017.99 1018.24 1018.45 1018.88 1019.13 1019.33 1020.17 1020.71 1021.36 1021.90 1022.14 1022.80 1023.27 1023.34 1023.50 1023.95
1007.87 1007.49 1007.98 1007.91 1008.07 1007.08 1006.58 1005.18 1004.44 1003.93 1003.86 1003.95 1004.53 1004.88 1005.31 1005.95 1006.87 1007.89 1009.01 1010.05 1010.64 1011.25 1011.81 1012.16 1012.69 1013.22 1013.73 1014.39 1014.99 1015.63 1016.06 1016.61 1017.10 1017.60 1017.72 1017.95 1018.27 1018.89 1019.33 1019.86 1020.37 1021.00 1021.35 1021.70 1022.06 1022.77 1022.80 1023.08 1023.35
1007.21 1007.40 1007.43 1007.48 1007.64 1007.46 1006.44 1005.97 1003.74 1003.68 1003.03 1002.63 1002.75 1003.51 1004.19 1004.93 1005.72 1006.71 1007.95 1009.00 1010.03 1010.73 1011.31 1011.80 1012.36 1012.85 1013.32 1013.77 1014.41 1015.13 1015.66 1016.16 1016.38 1017.15 1017.61 1018.15 1018.33 1018.74 1018.97 1019.54 1019.87 1020.44 1020.66 1021.14 1021.61 1022.13 1022.58 1022.46 1022.69
1007.04 1007.27 1007.54 1007.82 1007.89 1006.92 1005.63 1005.41 1002.54 1002.49 1001.98 1001.62 1001.79 1002.24 1003.23 1004.24 1005.03 1006.00 1007.31 1008.41 1009.43 1010.18 1010.88 1011.36 1011.88 1012.24 1012.70 1013.26 1013.96 1014.52 1014.87 1015.36 1015.91 1016.51 1017.12 1017.67 1017.86 1018.26 1018.48 1018.82 1019.24 1019.67 1020.03 1020.46 1020.81 1021.30 1021.78 1021.96 1022.10
1006.97 1007.10 1007.49 1007.73 1007.46 1005.53 1004.91 1004.69 1002.05 1001.66 1001.42 1001.11 1001.11 1001.27 1002.27 1003.39 1004.43 1005.38 1006.43 1007.60 1008.54 1009.28 1010.10 1010.83 1011.25 1011.69 1012.12 1012.68 1013.41 1014.02 1014.60 1015.08 1015.31 1015.65 1016.08 1016.65 1017.39 1017.71 1018.03 1018.35 1019.00 1019.18 1019.40 1019.90 1020.41 1020.69 1020.94 1021.25 1021.46
1006.05 1006.44 1006.72 1006.60 1006.28 1005.06 1004.90 1003.17 1001.47 1000.76 1000.50 1000.70 1000.91 1001.17 1001.68 1002.70 1003.56 1004.24 1005.02 1006.19 1007.35 1008.52 1009.44 1010.10 1010.60 1011.09 1011.70 1012.18 1012.86 1013.66 1014.27 1014.83 1015.31 1015.66 1015.88 1016.18 1016.49 1016.78 1017.17 1017.68 1018.25 1018.63 1018.86 1019.15 1019.58 1019.95 1020.32 1020.62 1020.85
1005.53 1005.56 1006.07 1006.30 1006.11 1005.35 1003.81 1002.71 1001.43 1000.38 1000.39 1000.38 1000.38 1000.69 1000.81 1001.75 1002.68 1003.47 1004.14 1005.16 1006.28 1007.38 1008.38 1009.07 1009.74 1010.43 1011.12 1011.67 1012.37 1013.04 1013.69 1014.06 1014.38 1014.84 1015.26 1015.58 1016.10 1016.41 1016.82 1017.08 1017.58 1017.95 1018.10 1018.69 1018.96 1019.25 1019.34 1019.63 1019.84
1004.10 1004.68 1005.85 1006.00 1005.29 1004.58 1003.24 1002.52 1000.95 1000.22 1000.04 1000.18 1000.03 1000.05 1000.05 1001.06 1002.23 1003.00 1003.54 1004.31 1005.24 1006.19 1007.33 1008.23 1008.79 1009.30 1010.04 1010.88 1011.56 1012.08 1012.67 1013.35 1013.88 1014.27 1014.50 1014.92 1015.25 1015.60 1016.00 1016.41 1016.80 1017.05 1017.36 1017.63 1018.26 1018.52 1018.63 1018.93 1019.27
1004.12 1004.01 1004.14 1004.24 1004.01 1003.23 1002.54 1001.59 1000.36 999.76 999.71 1000.08 999.74 999.85 999.84 1000.41 1001.41 1002.59 1002.95 1003.65 1004.62 1005.50 1006.37 1007.14 1007.85 1008.53 1009.16 1009.72 1010.44 1011.10 1011.79 1012.55 1013.14 1013.40 1013.64 1013.80 1014.29 1014.77 1015.20 1015.57 1015.96 1016.27 1016.68 1017.00 1017.37 1017.86 1018.17 1018.05 1018.51
1003.38 1002.98 1003.35 1003.22 1003.45 1003.07 1002.31 1000.61 1000.01 999.63 999.67 999.85 999.59 999.35 999.63 1000.09 1000.75 1001.93 1002.74 1003.33 1004.01 1004.67 1005.52 1006.10 1006.91 1007.49 1008.08 1008.76 1009.54 1010.13 1010.81 1011.41 1011.81 1012.04 1012.01 1012.79 1013.37 1013.91 1014.39 1014.87 1015.25 1015.58 1015.97 1016.22 1016.85 1017.05 1017.55 1017.61 1017.82
Thickness
5713 5710 5709 5704 5687 5677 5672 5676 5674 5680 5683 5692 5690 5681 5679 5677 5676 5668 5679 5681 5682 5684 5684 5681 5678 5678 5680 5681 5685 5686 5685 5687 5688 5686 5686 5684 5690 5688 5683 5686 5680 5677 5678 5674 5675 5672 5671 5672 5669
5709 5707 5703 5687 5678 5672 5672 5671 5675 5687 5694 5690 5685 5679 5674 5677 5677 5675 5671 5673 5673 5676 5678 5676 5674 5675 5676 5678 5682 5682 5681 5675 5675 5683 5681 5680 5681 5678 5671 5683 5676 5674 5671 5669 5668 5666 5666 5666 5664
5706 5702 5693 5677 5659 5673 5672 5675 5687 5687 5691 5686 5680 5678 5676 5676 5677 5675 5672 5669 5668 5666 5670 5671 5670 5668 5672 5677 5680 5680 5669 5652 5656 5668 5674 5674 5673 5671 5666 5676 5669 5670 5664 5663 5660 5658 5660 5659 5657
5699 5694 5678 5672 5666 5671 5673 5685 5683 5681 5683 5681 5676 5671 5673 5677 5675 5671 5668 5666 5664 5660 5660 5660 5661 5661 5661 5667 5672 5660 5656 5650 5650 5659 5664 5667 5664 5667 5665 5668 5666 5664 5659 5657 5652 5652 5653 5653 5651
5691 5683 5671 5660 5661 5666 5672 5680 5679 5678 5679 5678 5673 5673 5671 5673 5668 5664 5662 5660 5659 5654 5651 5650 5647 5651 5652 5659 5657 5648 5655 5649 5652 5651 5654 5660 5661 5664 5663 5662 5661 5658 5656 5650 5645 5644 5646 5649 5646
5682 5673 5665 5662 5658 5666 5675 5683 5681 5678 5678 5670 5668 5668 5674 5669 5663 5660 5655 5653 5651 5649 5645 5641 5637 5642 5645 5649 5652 5653 5643 5643 5651 5652 5648 5651 5653 5656 5660 5654 5651 5651 5648 5643 5640 5640 5638 5641 5640
5678 5668 5662 5657 5660 5661 5672 5682 5679 5680 5677 5674 5673 5668 5675 5664 5659 5653 5650 5648 5644 5645 5643 5636 5631 5636 5637 5641 5646 5644 5643 5641 5640 5644 5645 5645 5644 5647 5650 5648 5642 5639 5640 5636 5634 5634 5633 5632 5632
5674 5670 5651 5652 5660 5662 5672 5676 5678 5675 5675 5669 5670 5670 5670 5661 5656 5650 5647 5645 5640 5639 5642 5635 5630 5626 5632 5635 5639 5641 5641 5639 5641 5637 5637 5637 5641 5639 5640 5641 5636 5631 5632 5629 5627 5625 5626 5623 5623
5670 5663 5656 5655 5652 5668 5672 5670 5674 5671 5666 5662 5666 5666 5663 5656 5650 5647 5643 5641 5637 5634 5634 5633 5627 5623 5624 5629 5632 5635 5639 5639 5635 5634 5635 5631 5634 5632 5630 5633 5628 5628 5624 5622 5620 5620 5619 5619 5614
5668 5661 5661 5666 5666 5669 5669 5666 5670 5666 5661 5662 5660 5661 5658 5653 5646 5643 5641 5638 5634 5630 5629 5628 5627 5623 5622 5624 5627 5633 5634 5634 5632 5628 5633 5626 5629 5627 5621 5622 5622 5622 5618 5615 5613 5612 5613 5613 5610
5660 5665 5664 5671 5668 5671 5670 5664 5667 5662 5664 5671 5664 5666 5657 5652 5645 5643 5640 5635 5631 5628 5625 5625 5623 5622 5620 5621 5624 5627 5628 5630 5628 5628 5626 5620 5615 5617 5615 5616 5620 5613 5610 5605 5605 5602 5605 5607 5607
5658 5666 5667 5675 5668 5663 5663 5669 5665 5661 5673 5670 5669 5665 5658 5650 5643 5640 5637 5633 5627 5623 5621 5621 5619 5617 5616 5617 5617 5621 5624 5623 5621 5617 5615 5611 5611 5608 5608 5609 5613 5608 5604 5601 5599 5598 5596 5596 5598
5657 5665 5670 5671 5664 5660 5662 5664 5665 5664 5672 5665 5661 5658 5656 5650 5644 5639 5635 5630 5624 5620 5617 5615 5614 5613 5613 5614 5614 5615 5616 5616 5612 5609 5607 5609 5606 5600 5601 5603 5605 5602 5598 5594 5593 5594 5589 5587 5591
5666 5663 5668 5669 5667 5661 5660 5660 5655 5681 5671 5661 5655 5653 5655 5651 5644 5637 5632 5625 5620 5618 5614 5611 5609 5610 5611 5611 5611 5609 5612 5612 5603 5601 5603 5602 5600 5597 5598 5597 5599 5593 5592 5590 5590 5588 5584 5584 5584
5661 5655 5662 5667 5670 5664 5665 5656 5657 5676 5664 5659 5652 5652 5651 5649 5643 5638 5632 5624 5619 5615 5611 5607 5606 5607 5606 5605 5605 5605 5602 5602 5595 5594 5597 5597 5596 5594 5592 5594 5588 5586 5583 5588 5584 5580 5579 5579 5579
5649 5648 5648 5662 5659 5663 5665 5664 5675 5666 5663 5658 5652 5651 5648 5645 5643 5636 5629 5623 5617 5613 5609 5605 5602 5602 5603 5602 5600 5599 5596 5591 5588 5589 5592 5591 5590 5593 5588 5589 5585 5579 5580 5582 5579 5577 5576 5574 5572
5635 5643 5641 5651 5659 5658 5655 5663 5671 5660 5659 5656 5647 5648 5645 5642 5640 5635 5626 5621 5615 5610 5606 5601 5598 5597 5599 5601 5597 5592 5591 5587 5586 5586 5587 5587 5589 5587 5586 5584 5577 5577 5579 5577 5574 5572 5570 5568 5568
5636 5631 5635 5645 5651 5649 5646 5656 5670 5661 5657 5658 5653 5645 5642 5641 5640 5635 5627 5620 5615 5610 5604 5600 5595 5594 5595 5595 5591 5589 5586 5584 5584 5584 5582 5583 5585 5582 5581 5578 5576 5577 5574 5568 5568 5569 5564 5565 5568
5637 5634 5638 5651 5647 5644 5647 5649 5663 5666 5654 5652 5651 5650 5646 5643 5641 5635 5626 5620 5614 5609 5604 5597 5594 5593 5593 5591 5589 5590 5586 5582 5581 5582 5580 5580 5579 5579 5578 5576 5583 5571 5567 5567 5567 5563 5564 5562 5564
5628 5629 5643 5645 5644 5635 5647 5650 5664 5665 5666 5661 5656 5655 5653 5647 5636 5632 5626 5620 5615 5611 5605 5599 5596 5594 5592 5589 5588 5587 5583 5581 5583 5580 5578 5578 5581 5581 5578 5580 5576 5573 5566 5565 5564 5565 5564 5566 5566
5623 5624 5639 5630 5630 5637 5637 5644 5658 5668 5661 5659 5658 5662 5657 5653 5643 5635 5629 5621 5618 5613 5610 5603 5598 5595 5592 5589 5586 5582 5579 5576 5576 5577 5578 5579 5579 5580 5582 5578 5575 5571 5567 5570 5567 5567 5569 5569 5568
5616 5634 5625 5623 5615 5619 5631 5628 5651 5666 5666 5663 5661 5660 5659 5655 5651 5644 5635 5626 5622 5617 5612 5609 5603 5598 5593 5589 5585 5584 5585 5582 5579 5577 5579 5580 5581 5580 5578 5576 5573 5568 5569 5572 5571 5565 5570 5571 5570
5621 5626 5623 5622 5616 5611 5628 5618 5651 5652 5660 5671 5677 5667 5665 5660 5658 5652 5641 5634 5626 5620 5616 5611 5606 5603 5597 5592 5589 5587 5585 5583 5584 5580 5578 5577 5579 5578 5579 5575 5576 5574 5575 5573 5572 5571 5567 5571 5570
5619 5616 5614 5609 5606 5598 5631 5622 5655 5658 5662 5671 5677 5677 5669 5662 5660 5656 5646 5638 5628 5624 5618 5615 5611 5608 5604 5599 5595 5591 5592 5589 5586 5584 5582 5580 5583 5583 5582 5583 5582 5580 5578 5579 5576 5571 5568 5569 5571
5608 5608 5597 5593 5591 5610 5634 5616 5658 5666 5665 5673 5679 5684 5675 5667 5661 5657 5649 5640 5634 5629 5623 5618 5615 5613 5610 5606 5601 5598 5593 5591 5591 5591 5591 5590 5585 5586 5586 5584 5580 5581 5582 5577 5573 5572 5572 5570 5569
5606 5607 5596 5591 5601 5620 5616 5618 5655 5673 5675 5675 5676 5678 5678 5669 5666 5665 5660 5651 5643 5633 5627 5622 5620 5617 5612 5610 5605 5600 5596 5592 5591 5591 5593 5591 5590 5592 5589 5587 5582 5581 5581 5579 5576 5575 5573 5570 5569
5596 5595 5614 5596 5589 5598 5617 5629 5658 5673 5669 5671 5676 5677 5679 5675 5670 5668 5665 5658 5650 5641 5634 5629 5625 5621 5616 5613 5609 5604 5600 5598 5597 5596 5595 5595 5592 5591 5589 5588 5584 5580 5582 5576 5573 5573 5574 5571 5570
5607 5610 5586 5589 5585 5590 5610 5614 5646 5660 5664 5666 5673 5678 5682 5677 5669 5668 5667 5662 5656 5649 5641 5635 5631 5627 5622 5617 5613 5610 5607 5602 5599 5598 5599 5597 5595 5594 5591 5588 5586 5584 5581 5577 5573 5572 5571 5568 5565
5594 5596 5601 5606 5602 5605 5604 5617 5652 5662 5666 5660 5669 5675 5679 5678 5672 5666 5667 5665 5657 5651 5646 5641 5637 5632 5627 5623 5619 5616 5611 5605 5601 5602 5601 5601 5598 5595 5592 5589 5585 5583 5579 5577 5574 5569 5566 5565 5562
5599 5601 5601 5597 5592 5597 5606 5623 5653 5658 5661 5658 5667 5674 5678 5678 5675 5669 5665 5663 5659 5653 5648 5645 5640 5637 5634 5628 5623 5619 5613 5610 5608 5607 5607 5601 5598 5595 5592 5586 5582 5579 5577 5575 5568 5566 5560 5560 5558